User: anonymous   Login
Location: Caltech
(34.1382°N, 118.1253°W)
Time: 05:20:04
(UTC-07:00)
Language:

OAO 2 Rocket - Orbit

View from above orbital plane
View from above orbital plane
View from above satellite
View from above satellite

Ground track
Ground track

The orbit data is extracted from the following two-line orbital elements,

1  3598U 68110B   17266.79961445 +.00000081 +00000-0 +23161-4 0  9994
2  3598 034.9932 140.3599 0049880 306.9755 052.6379 14.54327073559931
Epoch (UTC): 23 September 2017 19:11:26
Eccentricity: 0.0049880
inclination: 34.9932°
perigee height: 676 km
apogee height: 747 km
right ascension of ascending node: 140.3599°
argument of perigee: 306.9755°
revolutions per day: 14.54327073
mean anomaly at epoch: 52.6379°
orbit number at epoch: 55993

The dashed part of the orbit path shows where the satellite is in the earth's shadow,  

DLR